Weather History for Lexington, NE

Change the Weather History Date:

Thursday, November 29, 2012

  Actual Average Record
Temperature  
Mean Temperature 42 °F -  
Max Temperature 66 °F 42 °F 66 °F (2003)
Min Temperature 17 °F 21 °F 6 °F (2001)
Degree Days  
Heating Degree Days 24    
Moisture  
Dew Point 19 °F    
Average Humidity 57    
Maximum Humidity 89    
Minimum Humidity 15    
Precipitation  
Precipitation 0.00 in - - ()
Sea Level Pressure  
Sea Level Pressure 29.96 in    
Wind  
Wind Speed 4 mph (West)    
Max Wind Speed 10 mph    
Max Gust Speed -    
Visibility 10 miles    
Events      
Averages and records for this station are not official NWS values.
T = Trace of Precipitation, MM = Missing Value Source: NWS Daily Summary

Daily Weather History Graph

Daily Weather History Graph

Search for Another Location

Airport:

Trip Planner

Search our weather history database for the weather conditions in past years. The results will help you decide how hot, cold, wet, or windy it might be!

Date:

Astronomy

Nov. 29, 2012 Rise Set
Actual Time 7:42 AM CST 5:12 PM CST
Civil Twilight 7:12 AM CST 5:42 PM CST
Nautical Twilight 6:38 AM CST 6:16 PM CST
Astronomical Twilight 6:05 AM CST 6:49 PM CST
Moon 6:16 PM CST (11/29) 8:30 AM CST (11/29)
Length of Visible Light 10h 30m
Length of Day
9h 30m
Full, 99% of the Moon is Illuminated
Nov 29
Full
Dec 6
Last Quarter
Dec 13
New
Dec 19
First Quarter
Dec 28
Full

Hourly Weather History & Observations

Time (CST) Temp. Windchill Dew Point Humidity Pressure Visibility Wind Dir Wind Speed Gust Speed Precip Events Conditions
12:15 AM 23.9 °F - 18.7 °F 80% 30.03 in 10.0 mi Calm Calm - N/A   Clear
12:35 AM 24.4 °F - 18.9 °F 79% 30.02 in 10.0 mi Calm Calm - N/A   Clear
12:55 AM 24.1 °F - 19.0 °F 81% 30.01 in 10.0 mi Calm Calm - N/A   Clear
1:15 AM 23.5 °F - 19.4 °F 84% 30.00 in 10.0 mi Calm Calm - N/A   Clear
1:35 AM 23.0 °F - 18.7 °F 84% 29.99 in 10.0 mi Calm Calm - N/A   Clear
1:55 AM 23.9 °F - 19.2 °F 82% 29.99 in 10.0 mi Calm Calm - N/A   Clear
2:15 AM 23.5 °F 19.1 °F 18.5 °F 81% 29.99 in 10.0 mi WSW 3.5 mph - N/A   Clear
2:35 AM 20.1 °F - 14.9 °F 80% 29.99 in 10.0 mi Calm Calm - N/A   Clear
2:55 AM 22.1 °F 15.9 °F 16.9 °F 80% 29.98 in 10.0 mi West 4.6 mph - N/A   Clear
3:15 AM 21.0 °F 14.6 °F 16.7 °F 83% 29.98 in 10.0 mi WNW 4.6 mph - N/A   Clear
3:35 AM 19.9 °F 13.4 °F 16.2 °F 85% 29.98 in 10.0 mi WNW 4.6 mph - N/A   Clear
3:55 AM 20.1 °F 10.3 °F 16.7 °F 87% 29.97 in 10.0 mi NNW 8.1 mph - N/A   Clear
4:15 AM 19.6 °F 13.0 °F 16.7 °F 89% 29.97 in 10.0 mi NW 4.6 mph - N/A   Clear
4:35 AM 20.1 °F 12.3 °F 17.1 °F 88% 29.97 in 10.0 mi NW 5.8 mph - N/A   Clear
4:55 AM 19.8 °F 10.8 °F 16.7 °F 88% 29.96 in 10.0 mi NW 6.9 mph - N/A   Clear
5:15 AM 17.8 °F 9.6 °F 14.2 °F 86% 29.96 in 10.0 mi WNW 5.8 mph - N/A   Clear
5:35 AM 18.1 °F 7.9 °F 14.9 °F 87% 29.97 in 10.0 mi WNW 8.1 mph - N/A   Clear
5:55 AM 20.3 °F 9.8 °F 17.4 °F 89% 29.96 in 10.0 mi WNW 9.2 mph - N/A   Clear
6:15 AM 20.1 °F 12.3 °F 17.1 °F 88% 29.96 in 10.0 mi WNW 5.8 mph - N/A   Clear
6:35 AM 19.6 °F 13.0 °F 16.3 °F 87% 29.95 in 10.0 mi West 4.6 mph - N/A   Clear
6:55 AM 19.4 °F 14.3 °F 16.2 °F 87% 29.96 in 10.0 mi WNW 3.5 mph - N/A   Clear
7:15 AM 18.5 °F 9.3 °F 15.6 °F 89% 29.96 in 10.0 mi WNW 6.9 mph - N/A   Clear
7:35 AM 20.5 °F 11.7 °F 17.4 °F 88% 29.96 in 10.0 mi WNW 6.9 mph - N/A   Clear
7:55 AM 20.5 °F 12.8 °F 17.1 °F 87% 29.97 in 10.0 mi WNW 5.8 mph - N/A   Clear
8:15 AM 22.1 °F 14.7 °F 19.0 °F 88% 29.98 in 7.0 mi NW 5.8 mph - N/A   Clear
8:35 AM 25.2 °F 18.3 °F 21.0 °F 84% 29.98 in 7.0 mi WNW 5.8 mph - N/A   Clear
8:55 AM 28.6 °F 19.9 °F 23.0 °F 80% 29.98 in 7.0 mi WNW 9.2 mph - N/A   Clear
9:15 AM 30.6 °F 23.8 °F 23.4 °F 75% 29.99 in 10.0 mi WNW 6.9 mph - N/A   Clear
9:35 AM 32.5 °F 25.5 °F 25.0 °F 74% 29.99 in 10.0 mi WNW 8.1 mph - N/A   Clear
10:15 AM 37.8 °F 34.2 °F 26.4 °F 64% 29.99 in 10.0 mi WNW 4.6 mph - N/A   Clear
10:35 AM 40.8 °F 37.8 °F 26.8 °F 57% 29.98 in 10.0 mi West 4.6 mph - N/A   Clear
10:55 AM 43.0 °F 40.3 °F 26.6 °F 52% 29.98 in 10.0 mi West 4.6 mph - N/A   Clear
11:15 AM 45.0 °F 41.8 °F 26.1 °F 48% 29.98 in 10.0 mi WNW 5.8 mph - N/A   Clear
11:35 AM 46.0 °F 44.8 °F 25.9 °F 45% 29.97 in 10.0 mi West 3.5 mph - N/A   Clear
11:55 AM 48.7 °F - 25.2 °F 40% 29.97 in 10.0 mi West 3.5 mph - N/A   Clear
12:15 PM 51.1 °F - 23.7 °F 34% 29.95 in 10.0 mi SW 5.8 mph - N/A   Clear
12:35 PM 52.5 °F - 23.7 °F 33% 29.94 in 10.0 mi West 4.6 mph - N/A   Clear
12:55 PM 54.3 °F - 24.1 °F 31% 29.92 in 10.0 mi WSW 3.5 mph - N/A   Clear
1:15 PM 57.0 °F - 24.4 °F 29% 29.92 in 10.0 mi SW 3.5 mph - N/A   Clear
1:35 PM 59.7 °F - 22.8 °F 24% 29.91 in 10.0 mi SSW 3.5 mph - N/A   Clear
1:55 PM 62.6 °F - 19.8 °F 19% 29.90 in 10.0 mi WSW 6.9 mph - N/A   Clear
2:15 PM 63.5 °F - 19.2 °F 18% 29.89 in 10.0 mi WSW 6.9 mph - N/A   Clear
2:35 PM 64.4 °F - 18.5 °F 17% 29.89 in 10.0 mi SW 10.4 mph - N/A   Clear
2:55 PM 65.5 °F - 18.3 °F 16% 29.88 in 10.0 mi SW 10.4 mph - N/A   Clear
3:15 PM 66.0 °F - 17.2 °F 15% 29.88 in 10.0 mi SW 8.1 mph - N/A   Clear
3:35 PM 65.7 °F - 18.1 °F 16% 29.87 in 10.0 mi SW 10.4 mph - N/A   Clear
3:55 PM 65.1 °F - 18.1 °F 16% 29.87 in 10.0 mi SW 8.1 mph - N/A   Clear
4:15 PM 63.3 °F - 19.4 °F 18% 29.88 in 10.0 mi SSW 8.1 mph - N/A   Clear
4:35 PM 61.3 °F - 20.1 °F 20% 29.88 in 10.0 mi SW 6.9 mph - N/A   Clear
4:55 PM 58.6 °F - 20.1 °F 22% 29.89 in 10.0 mi SSW 8.1 mph - N/A   Clear
5:15 PM 55.8 °F - 20.1 °F 25% 29.89 in 7.0 mi SW 8.1 mph - N/A   Clear
5:35 PM 54.9 °F - 19.4 °F 25% 29.90 in 10.0 mi SW 10.4 mph - N/A   Clear
5:55 PM 53.2 °F - 18.7 °F 26% 29.90 in 10.0 mi SSW 10.4 mph - N/A   Clear
6:15 PM 51.8 °F - 18.3 °F 27% 29.92 in 10.0 mi NNW 3.5 mph - N/A   Clear
6:35 PM 48.7 °F - 18.0 °F 29% 29.94 in 10.0 mi WNW 6.9 mph - N/A   Clear
6:55 PM 44.2 °F 39.2 °F 17.6 °F 34% 29.96 in 10.0 mi NNW 9.2 mph - N/A   Clear
7:15 PM 43.3 °F 39.9 °F 18.0 °F 36% 29.97 in 7.0 mi NW 5.8 mph - N/A   Clear
7:35 PM 42.8 °F 38.0 °F 17.2 °F 36% 29.97 in 10.0 mi WNW 8.1 mph - N/A   Clear
7:55 PM 38.8 °F 35.4 °F 17.2 °F 42% 29.97 in 10.0 mi NE 4.6 mph - N/A   Clear
8:15 PM 37.8 °F - 18.9 °F 47% 29.97 in 10.0 mi Calm Calm - N/A   Clear
8:35 PM 42.1 °F - 18.3 °F 39% 29.97 in 10.0 mi Calm Calm - N/A   Clear
8:55 PM 39.2 °F 37.0 °F 18.1 °F 43% 29.97 in 10.0 mi NNE 3.5 mph - N/A   Clear
9:15 PM 33.6 °F 28.4 °F 16.7 °F 50% 29.98 in 10.0 mi North 5.8 mph - N/A   Clear
9:35 PM 36.0 °F 32.1 °F 17.2 °F 47% 29.99 in 10.0 mi NNW 4.6 mph - N/A   Clear
9:55 PM 33.6 °F 29.4 °F 17.8 °F 52% 30.00 in 10.0 mi NW 4.6 mph - N/A   Clear
10:15 PM 31.6 °F 27.0 °F 18.1 °F 57% 30.00 in 10.0 mi NNW 4.6 mph - N/A   Clear
10:35 PM 31.6 °F 26.0 °F 18.9 °F 59% 30.00 in 10.0 mi NNW 5.8 mph - N/A   Clear
10:55 PM 30.7 °F 27.3 °F 19.9 °F 64% 30.01 in 10.0 mi WNW 3.5 mph - N/A   Clear
11:15 PM 32.2 °F 27.7 °F 20.5 °F 62% 30.01 in 10.0 mi West 4.6 mph - N/A   Clear
11:35 PM 29.3 °F 20.8 °F 20.5 °F 70% 30.02 in 10.0 mi WNW 9.2 mph - N/A   Clear
11:55 PM 31.3 °F 25.6 °F 22.1 °F 69% 30.02 in 10.0 mi WNW 5.8 mph - N/A   Clear